Date String (YYYY-MM-DD hh:mm:ss) UTC,Instrument flags,Ambient pressure (hPa),Sample flow (lpm),Bypass flow (lpm),Sample temperature (°C),Ambient temperature (°C),ASC tube jacket temperature (°C),LED temperature (°C),Box temperature (°C),Sample RH (%),Span deviation,Mass concentration (μg/m³),Mass concentration (μg/m³),Mass concentration (μg/m³)
DateTimeUTC,F1_M11,P_M11,Q1_M11,Q2_M11,T1_M11,T2_M11,T3_M11,T4_M11,T5_M11,U1_M11,ZSPAN_M11,X0_M11,X2_M11,X1_M11
2021-09-28 09:00:00,,0822.8,5.01,0.00,30.1,29.2,00.0,39.1,31.9,14.6,0000.0,0019.88,0004.95,0003.36
2021-09-28 09:01:00,,0822.8,5.00,0.00,30.0,27.7,00.0,39.1,31.5,14.5,0000.0,0019.72,0004.94,0003.35
2021-09-28 09:02:00,,0822.8,5.00,0.00,29.9,26.3,00.0,39.0,31.2,14.8,0000.0,0018.22,0004.90,0003.33
2021-09-28 09:03:00,,0822.8,5.00,0.00,29.8,26.4,00.0,39.0,31.2,15.1,0000.0,0017.36,0004.87,0003.32
2021-09-28 09:04:00,,0822.8,5.00,0.00,29.7,26.8,00.0,39.0,31.2,15.5,0000.0,0017.76,0004.80,0003.30
2021-09-28 09:05:00,,0822.8,5.00,0.00,29.7,27.2,00.0,38.9,31.2,15.6,0000.0,0016.67,0004.76,0003.30
2021-09-28 09:06:00,,0822.8,4.99,0.00,29.7,27.5,00.0,38.9,31.3,15.6,0000.0,0016.33,0004.67,0003.27
2021-09-28 09:07:00,,0822.8,5.01,0.00,29.7,27.8,00.0,38.9,31.3,15.7,0000.0,0016.68,0004.62,0003.26
2021-09-28 09:08:00,,0822.8,5.00,0.00,29.7,28.1,00.0,38.9,31.4,15.6,0000.0,0016.78,0004.62,0003.25
2021-09-28 09:09:00,,0822.8,5.00,0.00,29.7,28.2,00.0,38.9,31.4,15.6,0000.0,0016.56,0004.59,0003.25
2021-09-28 09:10:00,,0822.8,5.00,0.00,29.7,28.4,00.0,38.9,31.4,15.5,0000.0,0015.66,0004.53,0003.24
2021-09-28 09:11:00,,0822.8,4.99,0.00,29.7,28.5,00.0,38.9,31.5,15.5,0000.0,0014.08,0004.49,0003.26
2021-09-28 09:12:00,,0822.8,5.00,0.00,29.8,28.6,00.0,38.9,31.5,15.6,0000.0,0013.96,0004.40,0003.27
2021-09-28 09:13:00,,0822.8,5.00,0.00,29.8,28.7,00.0,38.9,31.5,15.6,0000.0,0014.01,0004.33,0003.26
2021-09-28 09:14:00,,0822.8,5.02,0.00,29.8,28.8,00.0,38.9,31.6,15.5,0000.0,0014.29,0004.34,0003.27
2021-09-28 09:15:00,,0822.8,4.99,0.00,29.8,28.8,00.0,38.9,31.6,15.6,0000.0,0014.01,0004.39,0003.31
2021-09-28 09:16:00,,0822.8,4.99,0.00,29.9,28.8,00.0,38.9,31.7,15.6,0000.0,0014.58,0004.34,0003.34
2021-09-28 09:17:00,,0822.9,5.01,0.00,29.9,28.8,00.0,38.9,31.7,15.6,0000.0,0014.35,0004.38,0003.37
2021-09-28 09:18:00,,0823.0,5.01,0.00,29.9,28.9,00.0,38.9,31.7,15.7,0000.0,0014.02,0004.40,0003.39
2021-09-28 09:19:00,,0823.0,5.00,0.00,29.9,28.9,00.0,39.0,31.7,15.7,0000.0,0014.29,0004.43,0003.40
2021-09-28 09:20:00,,0823.0,4.99,0.00,29.9,28.9,00.0,39.0,31.7,15.8,0000.0,0015.09,0004.50,0003.42
2021-09-28 09:21:00,,0823.0,5.00,0.00,29.9,29.0,00.0,39.0,31.7,15.8,0000.0,0015.74,0004.56,0003.43
2021-09-28 09:22:00,,0823.0,4.99,0.00,30.0,29.0,00.0,39.0,31.7,15.6,0000.0,0016.39,0004.56,0003.44
2021-09-28 09:23:00,,0822.9,5.02,0.00,30.0,29.0,00.0,39.0,31.8,15.6,0000.0,0016.33,0004.63,0003.46
2021-09-28 09:24:00,,0822.9,4.99,0.00,30.0,29.1,00.0,39.0,31.8,15.6,0000.0,0016.74,0004.69,0003.49
2021-09-28 09:25:00,,0823.0,4.99,0.00,30.0,29.1,00.0,39.0,31.8,15.5,0000.0,0016.52,0004.70,0003.51
2021-09-28 09:26:00,,0823.0,5.01,0.00,30.0,29.1,00.0,39.1,31.8,15.5,0000.0,0016.11,0004.70,0003.52
2021-09-28 09:27:00,,0823.0,4.99,0.00,30.0,29.1,00.0,39.1,31.9,15.5,0000.0,0015.80,0004.75,0003.53
2021-09-28 09:28:00,,0823.0,5.01,0.00,30.0,29.2,00.0,39.1,31.9,15.7,0000.0,0016.18,0004.82,0003.54
2021-09-28 09:29:00,,0823.0,5.00,0.00,30.1,29.2,00.0,39.1,31.9,15.8,0000.0,0016.22,0004.88,0003.56
2021-09-28 09:30:00,,0823.0,4.99,0.00,30.1,29.2,00.0,39.1,31.9,15.9,0000.0,0016.17,0004.92,0003.59
2021-09-28 09:31:00,,0822.9,5.01,0.00,30.1,28.6,00.0,39.1,31.7,16.1,0000.0,0015.95,0004.91,0003.61
2021-09-28 09:32:00,,0823.0,4.98,0.00,29.9,26.7,00.0,39.1,31.2,16.0,0000.0,0015.65,0004.96,0003.63
2021-09-28 09:33:00,,0822.9,5.00,0.00,29.8,26.4,00.0,39.0,31.1,16.1,0000.0,0015.01,0004.99,0003.67
2021-09-28 09:34:00,,0822.9,5.01,0.00,29.7,26.7,00.0,39.0,31.1,16.3,0000.0,0014.92,0004.99,0003.69
2021-09-28 09:35:00,,0822.9,5.00,0.00,29.6,27.1,00.0,39.0,31.1,16.2,0000.0,0015.16,0005.03,0003.71
2021-09-28 09:36:00,,0823.0,5.01,0.00,29.6,27.4,00.0,38.9,31.2,16.4,0000.0,0015.58,0005.09,0003.75
2021-09-28 09:37:00,,0823.0,5.00,0.00,29.6,27.7,00.0,38.9,31.3,16.3,0000.0,0016.14,0005.11,0003.77
2021-09-28 09:38:00,,0823.0,5.01,0.00,29.6,27.9,00.0,38.9,31.3,16.3,0000.0,0015.89,0005.15,0003.79
2021-09-28 09:39:00,,0823.0,4.99,0.00,29.7,28.1,00.0,38.9,31.4,16.5,0000.0,0015.62,0005.15,0003.83
2021-09-28 09:40:00,,0823.0,5.01,0.00,29.7,28.3,00.0,38.9,31.4,16.6,0000.0,0015.69,0005.19,0003.85
2021-09-28 09:41:00,,0823.0,4.99,0.00,29.7,28.4,00.0,38.9,31.4,16.4,0000.0,0015.46,0005.18,0003.87
2021-09-28 09:42:00,,0823.0,5.00,0.00,29.7,28.5,00.0,38.9,31.5,16.3,0000.0,0015.24,0005.20,0003.88
2021-09-28 09:43:00,,0823.0,5.01,0.00,29.7,28.6,00.0,38.9,31.5,16.0,0000.0,0015.29,0005.22,0003.90
2021-09-28 09:44:00,,0823.0,4.99,0.00,29.8,28.6,00.0,38.9,31.6,15.8,0000.0,0015.59,0005.32,0003.91
2021-09-28 09:45:00,,0823.0,5.01,0.00,29.8,28.7,00.0,38.9,31.6,15.9,0000.4,0015.13,0005.31,0003.92
2021-09-28 09:46:00,,0823.0,5.00,0.00,29.8,28.7,00.0,38.9,31.6,16.0,0002.1,0014.67,0005.25,0003.92
2021-09-28 09:47:00,,0822.9,5.00,0.00,29.8,28.8,00.0,38.9,31.6,15.6,0000.5,0014.75,0005.25,0003.91
2021-09-28 09:48:00,,0822.9,5.00,0.00,29.8,28.8,00.0,38.9,31.6,15.5,0000.0,0014.74,0005.36,0003.93
2021-09-28 09:49:00,,0822.9,5.00,0.00,29.8,28.9,00.0,38.9,31.6,15.2,0000.0,0016.47,0005.40,0003.95
2021-09-28 09:50:00,,0822.9,4.99,0.00,29.9,28.9,00.0,38.9,31.7,15.0,0000.0,0016.59,0005.42,0003.94
2021-09-28 09:51:00,,0822.9,5.00,0.00,29.9,29.0,00.0,38.9,31.7,15.0,0000.0,0016.33,0005.40,0003.92
2021-09-28 09:52:00,,0822.9,4.99,0.00,29.9,29.0,00.0,39.0,31.7,14.9,0000.0,0017.03,0005.41,0003.92
2021-09-28 09:53:00,,0823.0,4.98,0.00,29.9,29.0,00.0,39.0,31.7,14.8,0000.0,0017.67,0005.44,0003.91
2021-09-28 09:54:00,,0823.0,5.01,0.00,29.9,29.0,00.0,39.0,31.7,14.7,0000.0,0017.60,0005.44,0003.90
2021-09-28 09:55:00,,0823.0,5.00,0.00,30.0,29.1,00.0,39.0,31.8,14.7,0000.0,0018.24,0005.37,0003.88
2021-09-28 09:56:00,,0823.0,4.99,0.00,30.0,29.1,00.0,39.0,31.8,14.7,0000.0,0019.15,0005.37,0003.88
2021-09-28 09:57:00,,0823.0,5.00,0.00,30.0,29.1,00.0,39.0,31.8,14.7,0000.0,0018.84,0005.46,0003.87
2021-09-28 09:58:00,,0822.9,5.01,0.00,30.0,29.1,00.0,39.0,31.8,14.6,0000.0,0018.37,0005.45,0003.86
2021-09-28 09:59:00,,0822.9,5.01,0.00,30.0,29.1,00.0,39.1,31.8,14.6,0000.0,0017.76,0005.37,0003.83
